weather.gov     
National Weather Service

Terminal Aerodrome Forecast
NWS Homepage
This page is being discontinued on March 12, 2014.
The same data is available at this site. Please update your bookmarks.
Thank you, and we apologize for the inconvenience.
Please send an email to SR-SRH.Webmaster@noaa.gov with any concerns.


Current Version
Previous Version:    01  02  03  04  05  06  07  08  09  10  11  12  13  14  15  16  17  18  19  20  21  22  23  24  25  26  27  28  29  30  
   31  32  33  
[Printable]
470
FTUS44 KTSA 180000 AAA
TAFMLC
TAF AMD
KMLC 180039Z 1801/1824 08005KT 4SM -RA SCT015 OVC050
      TEMPO 1801/1802 3SM -TSRA BKN040CB
     FM180300 09003KT 5SM -RA BR SCT008 OVC025
     FM180500 11004KT 5SM -DZ BR OVC012
     FM180900 14003KT 2SM BR OVC004
     FM181400 14003KT 5SM BR OVC006
     FM182200 07005KT 5SM BR OVC012=


U.S. Dept. of Commerce
NOAA National Weather Service
1325 East West Highway
Silver Spring, MD 20910
E-mail: w-nws.webmaster@noaa.gov
Page last modified: May 16, 2007
NATIONAL WEATHER SERVICE: for Safety, for Work, for Fun - FOR LIFE